Probability
29 58 81 84 87 87 87 90 90 90 97 94 94 94 94 87 87 90 87 87 81 77 71 71 68 68 58 68 68 74 68 74 77 74 68 65 68 68 74 71 61 48 68
39 61 77 84 84 87 87 84 87 90 97 97 94 94 90 87 84 84 81 77 77 71 71 65 58 58 61 71 71 71 74 74 77 71 58 61 68 68 68 61 48 48 65
39 58 74 77 84 87 77 81 84 87 97 94 94 97 87 87 90 84 81 68 71 71 58 61 61 58 65 71 71 65 71 71 71 65 58 32 55 65 65 65 61 61 61
39 45 58 81 81 81 81 77 81 84 87 90 97 100 97 87 84 84 77 77 74 68 61 65 55 58 55 61 58 55 58 58 58 55 29 23 32 58 71 68 71 68 61
35 45 65 81 74 77 77 81 84 87 84 94 94 94 77 81 81 81 77 77 74 71 58 58 55 58 55 58 52 55 55 48 52 39 10 19 23 61 74 74 68 65 65
39 58 65 77 81 81 81 77 81 77 81 84 87 84 81 81 77 71 71 71 61 58 55 58 55 58 55 58 55 52 55 45 35 6 6 10 19 61 68 65 71 65 65
42 55 61 77 81 81 81 77 77 71 71 84 77 77 77 81 77 68 68 65 61 55 52 58 58 55 52 48 52 58 61 52 16 3 3 6 23 65 61 61 65 65 65
32 52 58 74 84 77 74 74 74 68 71 68 68 61 81 74 71 65 61 65 55 52 52 55 48 45 55 52 48 55 55 52 23 13 10 10 29 61 58 61 58 58 55
32 39 52 52 61 71 71 74 74 74 71 68 61 61 65 65 55 58 58 55 52 52 61 61 55 52 58 61 58 55 68 58 26 16 19 16 42 55 58 58 58 55 55
32 35 39 42 45 55 58 68 68 68 65 65 58 55 55 48 48 48 55 55 61 61 58 52 52 55 55 58 52 55 68 52 19 10 16 29 52 58 55 58 55 58 58
23 26 29 29 29 32 45 55 55 61 65 61 58 61 48 32 32 35 48 55 58 68 71 61 55 68 65 58 52 52 48 26 13 10 10 32 68 68 65 58 58 55 55
26 26 26 29 26 23 35 45 35 42 42 35 35 35 26 19 19 32 45 58 65 68 71 68 61 58 52 32 23 45 23 13 6 10 10 58 68 61 65 61 65 61 61
23 23 23 23 23 23 26 26 29 29 26 26 23 23 26 19 19 26 19 35 45 55 42 39 48 35 23 13 13 13 10 10 10 10 26 61 65 61 61 65 58 52 58
13 16 13 19 19 16 26 26 26 26 26 23 19 19 16 19 23 16 19 13 10 19 13 16 23 16 13 10 10 13 6 6 13 16 26 65 65 71 65 58 65 65 61
23 23 23 16 13 23 23 23 26 26 26 19 13 23 26 19 23 16 19 16 16 13 13 13 16 13 13 10 13 16 19 10 10 13 23 61 71 68 71 74 65 61 61
23 23 26 29 29 29 26 29 26 23 19 19 23 19 23 16 16 23 19 19 19 16 16 16 10 13 13 16 16 19 19 16 10 10 16 35 65 71 68 74 71 74 65
19 26 32 32 26 29 29 26 23 19 19 23 26 23 19 16 19 10 13 13 13 16 16 13 13 13 16 13 13 16 19 13 16 19 23 10 32 61 71 68 61 71 65
16 26 29 32 29 26 29 26 26 23 23 23 26 16 16 23 19 16 10 16 16 19 19 16 19 16 13 16 19 19 13 13 19 13 16 13 16 29 55 65 65 61 58
23 26 32 29 26 23 26 19 26 26 29 26 23 19 23 29 32 19 23 19 19 23 16 16 19 23 19 19 23 19 10 6 0 13 10 6 6 6 10 42 61 58 61
23 26 26 26 29 29 32 29 29 29 26 26 23 23 26 35 39 29 29 13 19 19 16 13 16 23 16 16 19 19 10 10 6 3 3 6 10 10 6 10 26 48 58
32 32 26 32 32 29 29 32 32 29 23 23 19 26 29 32 35 29 39 29 26 26 16 16 16 23 16 19 10 13 3 0 6 6 3 6 6 10 13 0 10 13 26
32 29 26 26 29 29 26 39 29 35 32 26 29 19 26 29 29 29 26 35 29 26 29 23 23 23 23 23 16 10 3 0 0 0 0 3 6 6 13 6 10 6 10
32 29 29 32 32 29 29 35 39 32 29 26 23 26 29 32 29 32 35 35 29 29 29 19 23 19 23 19 19 13 6 0 0 0 0 3 3 3 6 6 3 6 6
39 35 32 32 35 32 32 35 39 35 32 26 29 32 39 39 35 32 35 32 39 26 26 19 19 19 23 19 23 16 10 6 6 0 0 0 3 3 6 6 6 10 10
32 32 29 29 29 32 32 32 39 39 35 39 39 32 39 39 35 32 35 35 29 29 29 19 16 19 23 23 19 19 16 10 10 6 6 0 0 0 6 6 6 10 10
26 29 26 29 29 32 32 32 32 35 39 39 42 42 39 32 32 32 35 32 32 26 23 23 23 19 16 23 23 19 19 19 13 10 10 6 3 3 3 6 6 6 10
Height
5898 5897 5897 5897 5897 5897 5897 5897 5897 5897 5897 5898 5898 5898 5898 5898 5898 5898 5899 5899 5899 5899 5900 5900 5900 5900 5900 5900 5900 5900 5900 5900 5900 5900 5900 5899 5899 5899 5898 5898 5898 5897 5897
5899 5898 5898 5898 5898 5898 5898 5898 5898 5898 5899 5899 5899 5899 5899 5899 5899 5899 5900 5900 5900 5900 5900 5901 5901 5901 5901 5901 5901 5901 5901 5900 5900 5900 5900 5900 5899 5899 5899 5898 5898 5898 5897
5899 5898 5898 5898 5899 5900 5900 5899 5899 5900 5900 5900 5900 5900 5900 5900 5900 5901 5901 5901 5901 5901 5901 5901 5901 5902 5902 5902 5901 5901 5901 5901 5901 5900 5900 5900 5900 5899 5899 5899 5899 5898 5898
5900 5898 5899 5900 5900 5901 5901 5901 5901 5901 5901 5901 5901 5901 5901 5901 5901 5901 5901 5901 5902 5902 5902 5902 5902 5902 5902 5902 5902 5901 5901 5901 5901 5901 5900 5900 5900 5900 5899 5899 5899 5898 5898
5903 5902 5901 5902 5902 5902 5902 5902 5902 5902 5902 5902 5902 5902 5902 5902 5902 5902 5902 5902 5902 5902 5902 5902 5902 5902 5903 5902 5902 5902 5901 5901 5901 5901 5901 5900 5900 5900 5900 5899 5899 5898 5898
5905 5904 5904 5904 5904 5903 5903 5903 5903 5902 5903 5903 5903 5903 5903 5903 5903 5902 5903 5903 5903 5902 5902 5902 5902 5903 5903 5902 5902 5902 5902 5901 5901 5901 5900 5900 5900 5900 5900 5899 5899 5899 5898
5907 5906 5906 5905 5905 5904 5904 5904 5903 5903 5903 5903 5903 5903 5903 5903 5903 5903 5903 5903 5903 5902 5902 5902 5902 5902 5902 5902 5902 5902 5901 5901 5901 5900 5900 5900 5900 5900 5899 5899 5899 5898 5898
5908 5907 5907 5907 5906 5905 5905 5904 5904 5904 5903 5903 5903 5903 5903 5903 5903 5903 5903 5903 5903 5902 5902 5902 5902 5902 5902 5902 5902 5901 5901 5901 5900 5900 5900 5900 5900 5899 5899 5898 5898 5898 5897
5909 5909 5908 5907 5907 5906 5906 5905 5904 5904 5904 5903 5903 5903 5903 5903 5903 5903 5903 5903 5903 5902 5902 5902 5901 5901 5901 5901 5901 5901 5901 5900 5900 5900 5900 5900 5899 5899 5899 5898 5898 5897 5897
5910 5909 5909 5908 5908 5907 5906 5905 5905 5904 5904 5903 5903 5903 5902 5902 5902 5902 5902 5902 5902 5902 5901 5901 5901 5901 5900 5900 5900 5900 5900 5900 5900 5900 5900 5899 5899 5899 5898 5898 5897 5897 5897
5911 5910 5909 5909 5908 5907 5906 5905 5905 5904 5904 5903 5903 5902 5902 5902 5902 5902 5901 5901 5901 5901 5900 5900 5900 5900 5900 5899 5899 5899 5899 5899 5899 5899 5899 5898 5898 5898 5898 5897 5897 5897 5896
5911 5910 5910 5909 5909 5908 5907 5905 5905 5904 5903 5903 5902 5902 5902 5901 5901 5901 5901 5900 5899 5899 5899 5899 5898 5899 5898 5898 5898 5899 5899 5899 5899 5898 5898 5898 5898 5897 5896 5896 5896 5896 5896
5911 5911 5911 5910 5909 5908 5907 5906 5905 5904 5904 5903 5902 5902 5901 5901 5901 5900 5900 5899 5898 5898 5897 5897 5897 5897 5897 5897 5897 5898 5898 5898 5898 5897 5897 5897 5897 5896 5896 5895 5895 5895 5895
5912 5911 5911 5910 5909 5908 5907 5906 5905 5904 5903 5903 5902 5901 5901 5900 5900 5899 5899 5898 5897 5897 5897 5896 5896 5895 5895 5896 5896 5896 5895 5896 5896 5896 5896 5896 5895 5895 5895 5894 5894 5894 5894
5913 5912 5911 5910 5909 5908 5907 5906 5905 5904 5903 5902 5901 5901 5900 5899 5899 5899 5898 5897 5896 5896 5895 5895 5895 5894 5894 5894 5895 5895 5894 5895 5895 5895 5894 5894 5894 5894 5894 5893 5893 5893 5893
5913 5912 5911 5910 5909 5908 5907 5906 5905 5904 5902 5901 5900 5900 5899 5898 5898 5897 5897 5896 5896 5895 5894 5894 5894 5893 5893 5893 5893 5893 5893 5893 5893 5893 5893 5892 5893 5893 5892 5892 5892 5892 5891
5913 5912 5911 5910 5909 5908 5907 5906 5905 5904 5902 5901 5900 5899 5898 5897 5897 5896 5896 5895 5894 5894 5893 5893 5892 5892 5892 5891 5891 5891 5891 5891 5891 5891 5891 5891 5891 5891 5891 5890 5890 5890 5890
5914 5913 5911 5910 5909 5908 5907 5906 5905 5903 5902 5901 5900 5899 5898 5897 5896 5895 5894 5894 5893 5892 5892 5891 5890 5890 5890 5890 5889 5889 5890 5890 5889 5889 5889 5889 5889 5889 5889 5888 5888 5888 5887
5915 5913 5912 5910 5909 5908 5907 5906 5904 5903 5902 5900 5899 5898 5897 5896 5895 5893 5893 5892 5891 5891 5890 5890 5889 5888 5888 5888 5888 5888 5888 5887 5887 5887 5887 5887 5886 5886 5886 5886 5885 5885 5885
5915 5914 5912 5911 5909 5908 5907 5905 5904 5903 5901 5900 5899 5898 5896 5895 5894 5893 5892 5891 5890 5889 5888 5888 5887 5886 5886 5886 5886 5886 5885 5885 5885 5885 5884 5884 5884 5884 5883 5883 5882 5882 5882
5915 5914 5913 5911 5910 5908 5907 5905 5904 5902 5901 5900 5899 5897 5896 5894 5893 5892 5891 5890 5888 5887 5886 5885 5884 5884 5884 5884 5883 5883 5883 5882 5882 5882 5882 5881 5881 5881 5880 5880 5879 5879 5879
5915 5914 5912 5911 5909 5908 5907 5905 5904 5902 5901 5899 5898 5897 5895 5894 5892 5891 5890 5888 5887 5885 5883 5882 5881 5881 5881 5881 5881 5880 5880 5880 5879 5879 5879 5878 5878 5878 5877 5877 5876 5876 5875
5915 5913 5912 5911 5909 5908 5906 5905 5903 5901 5900 5899 5897 5896 5894 5893 5891 5890 5888 5887 5885 5883 5881 5880 5878 5878 5878 5877 5877 5877 5877 5877 5876 5876 5875 5875 5875 5874 5874 5873 5873 5872 5871
5914 5913 5912 5910 5909 5907 5905 5904 5902 5900 5899 5897 5896 5895 5893 5891 5890 5888 5887 5885 5883 5881 5879 5878 5877 5876 5875 5874 5873 5873 5873 5873 5873 5872 5872 5871 5871 5870 5869 5869 5868 5868 5867
5914 5912 5911 5909 5907 5906 5904 5902 5901 5899 5898 5896 5894 5893 5891 5890 5888 5886 5885 5883 5881 5879 5877 5875 5874 5873 5872 5871 5870 5869 5869 5868 5868 5868 5867 5867 5866 5865 5865 5864 5864 5863 5863
5913 5911 5910 5908 5906 5904 5902 5901 5899 5897 5896 5894 5893 5891 5889 5888 5886 5884 5883 5881 5879 5877 5875 5873 5871 5870 5868 5867 5866 5865 5865 5864 5864 5863 5863 5862 5861 5860 5859 5859 5859 5858 5857
Wind_Speed
8 8 8 8 8 7 6 5 6 7 7 7 6 6 5 5 6 7 7 7 6 6 6 6 5 5 5 5 5 5 5 5 4 4 3 3 3 3 3 2 2 3 3
9 8 8 7 7 7 6 5 5 6 6 6 6 6 5 5 5 6 6 6 6 6 5 5 5 4 4 5 5 5 5 4 4 4 3 3 4 4 3 3 3 3 3
9 8 7 7 7 7 6 5 5 5 5 5 5 5 5 5 4 5 5 5 5 5 5 5 4 4 4 4 4 4 4 4 4 3 3 3 3 3 3 3 2 3 2
10 9 8 8 7 7 6 6 6 5 4 4 4 4 4 4 4 4 4 4 4 5 4 4 4 3 3 3 3 3 3 3 2 2 2 3 3 3 2 2 2 2 2
11 10 9 8 7 7 6 6 6 4 4 4 4 3 3 3 3 3 4 4 3 3 4 3 3 3 3 2 2 2 2 2 2 1 2 2 2 2 2 2 2 2 2
10 10 9 9 7 7 6 6 5 4 3 3 3 3 2 2 2 3 3 3 3 3 3 3 3 3 3 3 2 2 2 1 1 1 1 1 1 1 0 1 2 1 1
9 9 9 8 7 6 6 6 5 4 3 2 2 2 2 2 2 2 3 2 2 2 3 3 3 2 3 3 2 2 2 1 1 1 1 0 1 1 1 1 1 1 1
8 8 8 8 7 7 6 6 5 4 3 2 1 1 1 1 1 1 1 2 2 1 2 2 3 2 2 3 3 2 2 1 1 1 0 1 1 1 2 2 2 2 1
8 8 8 8 7 7 7 6 4 4 3 2 2 1 0 1 0 0 1 1 1 2 2 3 3 3 3 3 3 3 2 2 1 1 1 1 1 1 2 1 2 1 1
8 7 7 7 7 6 6 5 4 3 3 3 2 2 1 2 1 1 1 1 1 2 2 3 4 3 3 3 3 3 3 3 3 2 1 1 2 2 2 1 1 1 1
8 8 8 7 7 7 6 5 4 3 2 2 2 3 3 2 3 2 2 2 2 2 3 3 4 4 5 4 4 4 4 4 4 3 3 2 2 2 2 2 2 1 1
8 8 8 8 8 8 7 6 4 4 3 3 3 4 3 3 3 3 4 4 4 3 4 4 4 5 6 6 5 5 4 4 4 3 3 3 2 3 3 2 2 2 1
8 8 7 7 7 7 7 6 6 4 4 4 4 4 3 4 3 4 5 5 4 4 4 4 5 6 5 6 6 6 6 6 6 5 5 5 4 4 4 4 3 2 3
9 8 8 7 7 7 7 6 5 5 5 4 4 4 4 4 4 4 4 4 4 4 5 4 4 6 6 6 6 7 6 6 7 7 6 6 6 5 5 5 4 3 3
9 9 8 7 7 7 6 5 5 5 5 5 4 4 4 4 3 3 3 3 4 4 4 5 6 6 6 7 7 7 7 7 7 8 7 7 7 6 6 5 5 4 4
9 9 8 8 8 7 7 6 5 5 5 5 5 5 4 4 3 3 4 3 4 4 4 4 5 6 6 7 7 7 7 7 7 7 7 8 8 8 7 6 5 5 5
10 9 9 8 8 8 7 6 6 5 5 5 6 5 4 4 4 4 4 4 4 4 3 4 5 5 5 7 7 7 7 7 7 7 8 8 8 9 8 8 7 6 6
11 10 10 9 9 8 8 7 6 6 6 6 6 5 5 4 4 4 4 4 4 4 5 5 5 5 6 6 7 7 8 8 8 8 9 9 9 9 8 8 8 7 7
11 10 10 10 9 8 8 7 6 6 6 6 6 6 5 4 4 4 4 4 4 4 6 6 6 6 6 6 7 8 9 9 9 9 9 9 10 10 10 10 8 8 9
10 10 10 10 9 8 8 8 7 6 6 7 7 7 6 5 4 5 5 5 5 5 6 7 7 6 7 7 8 8 8 9 9 9 10 9 10 11 11 11 11 10 11
9 9 10 10 9 9 9 8 8 7 7 7 7 7 7 6 5 5 5 6 6 7 7 8 8 8 8 8 8 8 9 9 10 10 11 10 11 11 12 12 12 12 12
9 9 9 10 9 9 9 9 8 8 7 7 7 7 8 8 7 6 6 7 7 8 7 8 9 9 9 9 9 9 10 10 11 12 12 12 12 13 13 12 12 13 13
9 10 10 10 10 10 10 9 9 8 7 7 7 7 8 8 9 8 8 8 8 8 7 8 9 9 9 10 11 11 11 12 12 13 13 13 14 14 14 14 13 13 14
10 10 10 10 11 11 11 10 10 9 8 8 8 9 8 8 9 10 9 9 10 10 9 9 10 10 11 11 12 12 13 14 14 14 15 16 16 16 16 15 15 14 15
10 11 11 11 11 11 11 11 10 10 9 8 8 9 8 9 10 11 11 11 11 11 11 11 11 11 12 13 13 13 13 14 15 15 16 17 17 17 17 17 16 17 17
11 11 10 11 12 12 12 11 11 11 10 9 9 9 10 11 11 12 13 13 13 12 13 12 12 13 13 14 14 14 14 14 14 15 15 16 17 18 18 18 18 18 18
Wind_Direction
68 64 66 70 71 73 80 94 101 99 102 105 104 104 107 115 127 131 135 133 133 129 125 126 125 123 122 121 124 121 118 116 111 106 104 118 114 115 116 118 110 111 127
61 60 64 70 72 74 80 91 101 107 110 108 104 102 100 106 120 126 132 138 138 136 133 129 128 126 125 120 114 114 115 114 111 110 101 113 114 113 112 109 105 105 111
58 61 64 67 73 70 73 85 91 108 115 115 109 103 98 101 117 130 134 139 144 146 140 135 135 137 128 118 110 109 111 117 112 110 96 96 112 113 109 111 110 107 106
59 65 71 70 71 65 64 71 81 92 111 115 115 104 84 87 98 126 140 143 145 145 145 142 142 143 133 121 115 110 106 119 110 104 92 89 91 96 107 129 116 106 100
60 63 69 70 71 68 58 57 63 84 105 115 118 107 89 87 100 114 139 146 145 148 155 156 150 149 146 137 124 108 103 114 125 111 104 91 87 90 99 109 124 114 108
60 62 64 65 68 67 57 53 61 84 94 107 113 115 107 113 120 125 137 148 150 161 172 170 166 159 168 166 154 132 118 126 163 152 127 104 101 95 136 116 137 138 121
63 64 64 61 59 59 55 48 57 75 92 91 105 122 112 124 128 133 142 171 180 190 193 187 189 189 190 194 192 171 153 164 204 187 160 163 146 129 138 144 165 161 150
60 62 60 53 51 50 45 48 50 55 73 57 51 109 126 137 114 111 149 183 183 209 207 202 214 219 220 215 213 207 185 201 223 247 235 255 220 183 165 171 167 166 148
52 56 57 51 48 44 40 41 48 48 41 25 23 7 306 255 317 323 193 194 235 248 242 237 233 233 226 222 227 230 225 231 223 229 235 256 256 218 181 170 163 165 192
46 49 49 47 44 36 36 34 41 44 30 8 4 356 320 278 283 272 240 235 275 292 266 251 243 242 229 222 225 234 236 233 222 213 221 246 239 219 218 214 182 200 201
48 46 43 37 36 31 26 25 34 36 32 14 360 350 340 320 293 275 269 268 277 294 283 267 244 247 243 239 235 236 228 225 228 218 222 234 232 223 230 219 195 190 192
49 46 43 36 35 34 28 22 27 31 27 15 359 340 319 313 297 283 278 277 276 275 268 263 250 248 249 245 238 238 233 230 233 231 228 224 229 223 224 236 219 217 227
50 45 42 35 29 28 30 26 18 22 20 9 353 337 320 312 299 291 290 286 280 270 261 263 256 252 252 249 245 243 238 233 237 238 237 226 223 225 230 244 246 255 255
49 42 37 28 23 23 26 32 25 14 4 358 346 336 321 311 311 307 292 283 282 269 263 268 265 262 259 254 248 246 246 243 240 240 238 230 229 228 236 246 267 278 280
48 41 34 25 21 22 24 21 14 12 10 1 0 343 335 325 308 297 301 291 289 274 263 267 264 264 267 259 254 253 251 252 247 246 246 243 238 239 248 255 263 267 278
41 39 34 29 31 29 24 22 15 3 7 6 3 351 352 355 337 311 299 301 286 283 275 282 276 267 264 263 256 257 251 249 248 250 251 249 247 250 254 258 262 261 265
32 33 31 29 28 26 24 26 14 8 13 11 359 351 359 349 338 326 318 317 300 295 290 292 283 265 268 262 259 257 261 253 252 251 250 255 253 253 255 258 261 264 261
31 30 28 23 21 24 24 20 15 11 10 13 8 359 354 342 335 331 328 326 305 287 291 291 285 268 264 258 252 255 255 255 253 253 251 253 256 256 254 254 256 263 263
26 23 21 19 20 25 23 20 15 9 9 8 6 1 353 343 335 334 319 317 314 295 289 291 288 270 265 262 255 255 257 261 261 257 254 255 258 259 258 258 259 261 262
18 17 15 15 18 22 21 20 18 11 9 8 6 2 358 351 340 342 328 310 305 300 293 294 289 279 271 262 257 255 255 257 260 256 257 257 258 261 262 259 259 261 263
13 13 13 15 16 17 17 18 19 17 18 17 15 7 2 352 341 339 335 322 311 304 290 283 280 275 271 266 260 258 259 258 259 260 261 265 266 266 266 261 260 263 266
13 9 8 10 11 11 10 9 11 12 15 13 10 3 0 357 350 342 331 325 321 316 307 292 279 273 268 263 262 261 263 265 264 263 264 264 266 268 267 266 263 264 266
6 3 1 359 357 356 356 356 357 357 359 357 354 350 350 348 348 345 335 327 320 312 304 295 289 283 278 271 265 260 259 261 263 264 265 266 268 273 272 270 268 268 271
356 353 350 349 349 347 347 350 351 351 351 348 346 343 339 339 337 337 330 327 323 317 306 298 291 285 279 279 275 268 265 263 264 265 266 266 268 272 272 270 268 270 274
347 346 345 344 344 345 346 346 345 343 341 340 338 334 331 331 331 331 326 322 320 317 308 301 293 288 284 281 279 275 275 271 268 266 267 269 270 271 269 270 269 270 272
338 340 341 342 339 337 337 334 333 331 329 328 329 328 325 323 323 324 322 319 317 315 313 305 298 294 292 289 284 279 278 278 276 274 270 268 270 271 272 270 270 271 272